ARIANE 44LP DEB, 25539

Orbit data source: Space-Track

ARIANE 44LP DEB, 25539 is space debris in HEO originally from a launch on Sun, 11 Dec 1988 UTC launched from the French Guiana (FRGUI). Debris objects in space refer to the collection of defunct objects orbiting the Earth. Examples of debris include non-operational satellites, rocket bodies, and fragments generated from explosions, collisions, or faulty payload assembly.

Loading next visibility...
Identifier
25539, 1988-109F
Orbit
HEO
Country
Flag of FRFR
Related business
Manufacturer
Unknown
Mission
Spacecraft
Bus & Motor
Unknown
Mass
Unknown
Launch date (UTC)
1988-12-11 (37 years ago)
Launch vehicle
Unknown
Launch site
French Guiana (FRGUI)
Object type
Payload
Rocket body
Debris
Shape & HBR
Unknown
Radar Cross Section
Medium (>0.1 m² and <1 m²)

Expand to show TLE details & history
Last TLE update: 16 hours ago

TLE from 16 hours ago
0 ARIANE 44LP DEB
1 25539U 88109F   25250.95711437  .00000224  00000-0  64250-3 0  9999
2 25539   6.9177  94.6822 6817789 324.2517   5.1973  2.77547373253186
Epoch: 2025-09-07T22:58Z
TLE epoch observation values (Epoch: 2025-09-07T22:58:14.681Z)
Latitude
0.00032°
Longitude
122.96301°
Altitude
1,014.203 km
Speed
9.444 km/s
True Right ascension
06h 19m 10s
True Declination
0° 00' 01"
Sunlit
Object was in daylight at epoch
Visualization orbit readout
Latitude
Unknown
Longitude
Unknown
Altitude
Unknown
Speed
Unknown
Apparent Right ascension
Unknown
Apparent Declination
Unknown
Sunlit
N/A
Visualization observer readout
Local Sidereal Time
07:04:03
Azimuth
Unknown
Elevation
Unknown
Doppler factor
Unknown
Orbital elements
Apogee altitude
29,600.999 km
Perigee altitude
429.726 km
Semi-major axis
21,393.5 km
Eccentricity
0.68178
Inclination
6.9177°
RAAN
94.6822°
Arg. of periapsis
324.2517°
True anomaly
35.59153°
Mean anomaly
5.1973°
Eccentric anomaly
15.89705°
Mean motion
0.69362 °/min
Orbital period
519.02 mins
BSTAR
0.0006425
Loading maneuver chart data...
Computing Atmospheric mass density...
Loading historical data...
Loading historical data...
Loading historical data...
Loading historical data...
Loading historical data...
Loading historical data...
Loading historical data...

Documentation

Showing up to 5 results
|